Faro, Portugal

11:37 PM WET on November 16, 2019 (GMT +0000)
Faro

Weather History for LPFR - September, 2019

Change the Weather History Date:

Wednesday, September 11, 2019

  Actual Average Record
Temperature  
Mean Temperature 72 °F -  
Max Temperature 78 °F 75 °F 87 °F (2018)
Min Temperature 66 °F 61 °F 60 °F (2001)
Cooling Degree Days 7    
Growing Degree Days 22 (Base 50)    
Moisture  
Dew Point 49 °F    
Average Humidity 41    
Maximum Humidity 73    
Minimum Humidity 20    
Precipitation  
Precipitation 0.00 in 0.04 in - ()
Sea Level Pressure  
Sea Level Pressure 30.08 in    
Wind  
Wind Speed 11 mph ()    
Max Wind Speed 16 mph    
Max Gust Speed -    
Visibility 13.7 miles    
Events      
Averages and records for this station are not official NWS values.
T = Trace of Precipitation, MM = Missing Value Source: Averaged Metar Reports

Daily Weather History Graph

Daily Weather History Graph

Search for Another Location

Airport or City:

Astronomy

Sep. 11, 2019 Rise Set
Actual Time 7:10 AM WEST 7:46 PM WEST
Civil Twilight 6:44 AM WEST 8:12 PM WEST
Nautical Twilight 6:13 AM WEST 8:43 PM WEST
Astronomical Twilight 5:41 AM WEST 9:14 PM WEST
Moon 6:46 PM WEST (9/11) 4:25 AM WEST (9/11)
Length of Visible Light 13h 28m
Length of Day
12h 35m
Waxing Gibbous, 93% of the Moon is Illuminated
Sep 11
Waxing Gibbous
Sep 14
Full
Sep 22
Last Quarter
Sep 28
New
Oct 5
First Quarter

Hourly Weather History & Observations

Time (WEST) Temp. Dew Point Humidity Pressure Visibility Wind Dir Wind Speed Gust Speed Precip Events Conditions
12:00 AM 68 °F 50 °F 41% 30.11 in - NNW 11.2 mph - -  
12:30 AM 68.0 °F 48.2 °F 49% 30.06 in - NNW 15.0 mph - N/A   Clear
1:00 AM 67 °F 49 °F 41% 30.11 in 12 mi North 4.6 mph - -   Clear
1:00 AM 68.0 °F 48.2 °F 49% 30.09 in - North 12.7 mph - N/A   Clear
1:30 AM 66.2 °F 48.2 °F 52% 30.09 in - North 13.8 mph - N/A   Clear
2:00 AM 66 °F 48 °F 41% 30.10 in - North 8.9 mph - -  
2:00 AM 66.2 °F 48.2 °F 52% 30.06 in - NNW 16.1 mph - N/A   Clear
2:30 AM 66.2 °F 48.2 °F 52% 30.06 in - North 13.8 mph - N/A   Clear
3:00 AM 67 °F 47 °F 38% 30.09 in - North 8.9 mph - -  
3:00 AM 66.2 °F 46.4 °F 49% 30.06 in - NNW 13.8 mph - N/A   Clear
3:30 AM 66.2 °F 46.4 °F 49% 30.06 in - NNW 12.7 mph - N/A   Clear
4:00 AM 68 °F 45 °F 32% 30.08 in 12 mi North 8.9 mph - -   Clear
4:00 AM 68.0 °F 44.6 °F 43% 30.04 in - North 15.0 mph - N/A   Clear
4:30 AM 68.0 °F 44.6 °F 43% 30.04 in - North 10.4 mph - N/A   Clear
5:00 AM 69 °F 44 °F 28% 30.06 in - North 11.2 mph - -  
5:00 AM 68.0 °F 42.8 °F 40% 30.04 in - North 11.5 mph - N/A   Clear
5:30 AM 68.0 °F 42.8 °F 40% 30.04 in - North 15.0 mph - N/A   Clear
6:00 AM 69 °F 43 °F 28% 30.07 in - NNE 13.4 mph - -  
6:00 AM 69.8 °F 42.8 °F 38% 30.04 in - North 15.0 mph - N/A   Clear
6:30 AM 69.8 °F 42.8 °F 38% 30.04 in - North 15.0 mph - N/A   Clear
7:00 AM 69 °F 43 °F 28% 30.09 in 12 mi NNE 11.2 mph - -   Clear
7:00 AM 68.0 °F 42.8 °F 40% 30.06 in - North 13.8 mph - N/A   Clear
7:30 AM 68.0 °F 42.8 °F 40% 30.06 in - North 15.0 mph - N/A   Clear
8:00 AM 69 °F 45 °F 31% 30.12 in - NNE 13.4 mph - -  
8:00 AM 68.0 °F 42.8 °F 40% 30.09 in - NNE 16.1 mph - N/A   Clear
8:30 AM 69.8 °F 42.8 °F 38% 30.09 in - NNE 13.8 mph - N/A   Clear
9:00 AM 73.4 °F 41.0 °F 31% 30.09 in - NE 11.5 mph - N/A   Clear
9:30 AM 73.4 °F 41.0 °F 31% 30.12 in - ENE 10.4 mph - N/A   Clear
10:00 AM 76 °F 44 °F 21% 30.16 in 16 mi East 13.4 mph - -   Clear
10:00 AM 75.2 °F 41.0 °F 29% 30.12 in - ENE 12.7 mph - N/A   Clear
10:30 AM 75.2 °F 42.8 °F 31% 30.12 in - East 15.0 mph - N/A   Clear
11:00 AM 77 °F 45 °F 22% 30.16 in - ESE 13.4 mph - -  
11:00 AM 75.2 °F 42.8 °F 31% 30.12 in - East 12.7 mph - N/A   Clear
11:30 AM 75.2 °F 44.6 °F 34% 30.12 in - ESE 10.4 mph - N/A   Clear
12:00 PM 78 °F 46 °F 22% 30.15 in - SE 11.2 mph - -  
12:00 PM 75.2 °F 42.8 °F 31% 30.12 in - SE 10.4 mph - N/A   Clear
1:00 PM 76 °F 48 °F 26% 30.14 in 16 mi SSE 11.2 mph - -   Clear
1:00 PM 75.2 °F 48.2 °F 38% 30.12 in - SSE 11.5 mph - N/A   Clear
1:30 PM 75.2 °F 50.0 °F 41% 30.09 in - SSE 9.2 mph - N/A   Clear
2:00 PM 75.2 °F 51.8 °F 44% 30.09 in - SW 10.4 mph - N/A   Clear
2:30 PM 75.2 °F 50.0 °F 41% 30.09 in - SW 11.5 mph - N/A   Clear
3:00 PM 75 °F 56 °F 41% 30.11 in - SW 13.4 mph - -  
3:00 PM 73.4 °F 55.4 °F 53% 30.09 in - SW 13.8 mph - N/A   Clear
3:30 PM 73.4 °F 55.4 °F 53% 30.06 in - SW 12.7 mph - N/A   Clear
4:00 PM 76 °F 57 °F 41% 30.10 in - West 15.7 mph - -  
4:00 PM 73.4 °F 55.4 °F 53% 30.06 in - WSW 16.1 mph - N/A   Clear
4:30 PM 73.4 °F 55.4 °F 53% 30.06 in - WSW 16.1 mph - N/A   Clear
5:00 PM 73.4 °F 55.4 °F 53% 30.06 in - WSW 16.1 mph - N/A   Clear
5:30 PM 73.4 °F 55.4 °F 53% 30.06 in - WSW 16.1 mph - N/A   Clear
6:00 PM 74 °F 57 °F 45% 30.09 in - WSW 13.4 mph - -  
6:00 PM 73.4 °F 57.2 °F 57% 30.06 in - WSW 11.5 mph - N/A   Clear
6:30 PM 73.4 °F 57.2 °F 57% 30.06 in - WSW 15.0 mph - N/A   Clear
7:00 PM 74 °F 56 °F 44% 30.08 in 12 mi West 15.7 mph - -   Clear
7:00 PM 73.4 °F 57.2 °F 57% 30.04 in - WSW 15.0 mph - N/A   Clear
7:30 PM 71.6 °F 57.2 °F 60% 30.04 in - SW 6.9 mph - N/A   Clear
8:00 PM 71.6 °F 59.0 °F 64% 30.06 in - WSW 9.2 mph - N/A   Clear
8:30 PM 69.8 °F 60.8 °F 73% 30.06 in - West 8.1 mph - N/A   Clear
9:00 PM 73 °F 58 °F 49% 30.10 in - NNW 6.7 mph - -  
9:00 PM 71.6 °F 59.0 °F 64% 30.06 in - NNW 5.8 mph - N/A   Clear
9:30 PM 73.4 °F 53.6 °F 50% 30.06 in - NNW 6.9 mph - N/A   Clear
10:00 PM 75 °F 46 °F 25% 30.12 in 16 mi NNW 6.7 mph - -   Clear
10:00 PM 71.6 °F 50.0 °F 46% 30.09 in - NNW 10.4 mph - N/A   Clear
10:30 PM 75.2 °F 42.8 °F 31% 30.09 in - NNW 10.4 mph - N/A   Clear
11:00 PM 77 °F 44 °F 20% 30.11 in - North 6.7 mph - -  
11:00 PM 77.0 °F 42.8 °F 29% 30.09 in - North 9.2 mph - N/A   Clear
11:30 PM 77.0 °F 42.8 °F 29% 30.09 in - North 10.4 mph - N/A   Clear